PAL110 RPLL-PGUM

Flight info

Callsign PAL110
Flight time 3h 19m
Altitude 33000
Route JOM2R JOM G467 YELLO/N0458F350 G467 ACRON
Aircraft A321/M-SDE3FGHIRWY/LB1

Departure

Time 2026-05-05 03:35
Airport Ninoy Aquino International Airport (RPLL)

Arrival

Time 2026-05-05 06:54
Airport Antonio B. Won Pat International Airport (PGUM)
Time Latitude Longitude Altitude Speed Heading
2026-05-05 02:43 14.50845 121.01306 37 ft 0 kts 329°
2026-05-05 03:24 14.50842 121.01308 35 ft 2 kts 329°
2026-05-05 03:24 14.50829 121.01315 35 ft 2 kts 328°
2026-05-05 03:25 14.50816 121.01323 35 ft 2 kts 329°
2026-05-05 03:25 14.50804 121.01331 35 ft 2 kts 329°
2026-05-05 03:25 14.50793 121.01338 34 ft 0 kts 329°
2026-05-05 03:25 14.50783 121.01345 34 ft 2 kts 301°
2026-05-05 03:26 14.50778 121.01360 34 ft 2 kts 268°
2026-05-05 03:26 14.50781 121.01371 34 ft 0 kts 243°
2026-05-05 03:26 14.50784 121.01378 34 ft 1 kts 239°
2026-05-05 03:26 14.50785 121.01378 34 ft 0 kts 239°
2026-05-05 03:30 14.50779 121.01369 35 ft 5 kts 239°
2026-05-05 03:30 14.50752 121.01323 34 ft 9 kts 230°
2026-05-05 03:30 14.50698 121.01320 33 ft 8 kts 173°
2026-05-05 03:30 14.50642 121.01270 30 ft 15 kts 240°
2026-05-05 03:31 14.50581 121.01159 28 ft 19 kts 240°
2026-05-05 03:31 14.50511 121.01035 24 ft 20 kts 240°
2026-05-05 03:31 14.50440 121.00906 22 ft 21 kts 240°
2026-05-05 03:31 14.50388 121.00812 24 ft 13 kts 240°
2026-05-05 03:32 14.50342 121.00730 24 ft 14 kts 240°
2026-05-05 03:32 14.50291 121.00637 23 ft 17 kts 240°
2026-05-05 03:32 14.50226 121.00521 22 ft 20 kts 240°
2026-05-05 03:32 14.50152 121.00390 20 ft 21 kts 240°
2026-05-05 03:33 14.50079 121.00258 19 ft 21 kts 240°
2026-05-05 03:33 14.50006 121.00126 16 ft 22 kts 240°
2026-05-05 03:33 14.49942 121.00010 14 ft 17 kts 239°
2026-05-05 03:33 14.49862 120.99972 14 ft 13 kts 152°
2026-05-05 03:34 14.49804 121.00034 15 ft 11 kts 88°
2026-05-05 03:34 14.49842 121.00115 16 ft 22 kts 60°
2026-05-05 03:34 14.50014 121.00425 18 ft 82 kts 61°
2026-05-05 03:34 14.50405 121.01126 23 ft 141 kts 59°
2026-05-05 03:35 14.50962 121.02141 193 ft 173 kts 61°
2026-05-05 03:35 14.51538 121.03164 820 ft 168 kts 64°
2026-05-05 03:35 14.52121 121.04232 1327 ft 174 kts 62°
2026-05-05 03:35 14.52709 121.05294 1720 ft 172 kts 63°
2026-05-05 03:36 14.53319 121.06400 1905 ft 181 kts 63°
2026-05-05 03:36 14.53957 121.07558 2101 ft 191 kts 62°
2026-05-05 03:36 14.54632 121.08776 2301 ft 201 kts 62°
2026-05-05 03:36 14.55344 121.10058 2502 ft 213 kts 62°
2026-05-05 03:37 14.56038 121.11468 2646 ft 228 kts 76°
2026-05-05 03:37 14.55973 121.13104 2864 ft 240 kts 111°
2026-05-05 03:37 14.55217 121.14684 3135 ft 253 kts 114°
2026-05-05 03:37 14.54490 121.16374 3601 ft 258 kts 112°
2026-05-05 03:38 14.53796 121.18080 4162 ft 260 kts 111°
2026-05-05 03:38 14.53373 121.19877 4659 ft 261 kts 90°
2026-05-05 03:38 14.53577 121.21724 5024 ft 262 kts 80°
2026-05-05 03:38 14.53933 121.23561 5395 ft 265 kts 79°
2026-05-05 03:39 14.54286 121.25427 6004 ft 266 kts 80°
2026-05-05 03:39 14.54609 121.27296 6616 ft 267 kts 81°
2026-05-05 03:39 14.54916 121.29201 7192 ft 270 kts 82°
2026-05-05 03:39 14.55210 121.31106 7736 ft 272 kts 82°
2026-05-05 03:40 14.55503 121.33032 8294 ft 275 kts 82°
2026-05-05 03:40 14.55796 121.34976 8808 ft 277 kts 82°
2026-05-05 03:40 14.56092 121.36935 9338 ft 279 kts 82°
2026-05-05 03:40 14.56391 121.38912 9857 ft 282 kts 82°
2026-05-05 03:41 14.56694 121.40915 10274 ft 287 kts 82°
2026-05-05 03:41 14.57009 121.43003 10517 ft 299 kts 82°
2026-05-05 03:41 14.57336 121.45159 10758 ft 312 kts 82°
2026-05-05 03:41 14.57675 121.47404 10970 ft 324 kts 81°
2026-05-05 03:42 14.58027 121.49729 11177 ft 335 kts 81°
2026-05-05 03:42 14.58388 121.52122 11503 ft 341 kts 81°
2026-05-05 03:42 14.58753 121.54540 11933 ft 344 kts 81°
2026-05-05 03:42 14.59121 121.56975 12390 ft 347 kts 81°
2026-05-05 03:43 14.59496 121.59457 12789 ft 350 kts 81°
2026-05-05 03:43 14.59870 121.61940 13151 ft 353 kts 81°
2026-05-05 03:43 14.60249 121.64446 13562 ft 356 kts 81°
2026-05-05 03:43 14.60630 121.66970 13998 ft 357 kts 81°
2026-05-05 03:44 14.61011 121.69500 14379 ft 360 kts 81°
2026-05-05 03:44 14.61395 121.72046 14792 ft 362 kts 82°
2026-05-05 03:44 14.61779 121.74608 15201 ft 364 kts 82°
2026-05-05 03:44 14.62170 121.77208 15560 ft 367 kts 82°
2026-05-05 03:45 14.62560 121.79805 15923 ft 369 kts 82°
2026-05-05 03:45 14.62952 121.82419 16302 ft 371 kts 82°
2026-05-05 03:45 14.63347 121.85056 16710 ft 373 kts 82°
2026-05-05 03:45 14.63741 121.87691 17098 ft 374 kts 82°
2026-05-05 03:46 14.64137 121.90338 17455 ft 376 kts 82°
2026-05-05 03:46 14.64533 121.93000 17772 ft 379 kts 82°
2026-05-05 03:46 14.64937 121.95706 18095 ft 381 kts 82°
2026-05-05 03:46 14.65340 121.98408 18444 ft 383 kts 82°
2026-05-05 03:47 14.65745 122.01123 18760 ft 385 kts 82°
2026-05-05 03:47 14.66152 122.03852 19092 ft 387 kts 82°
2026-05-05 03:47 14.66561 122.06597 19399 ft 390 kts 82°
2026-05-05 03:47 14.66974 122.09362 19700 ft 392 kts 82°
2026-05-05 03:48 14.67387 122.12140 20000 ft 394 kts 82°
2026-05-05 03:48 14.67804 122.14950 20293 ft 396 kts 82°
2026-05-05 03:48 14.68221 122.17760 20573 ft 399 kts 82°
2026-05-05 03:48 14.68639 122.20583 20849 ft 401 kts 82°
2026-05-05 03:49 14.69060 122.23422 21124 ft 403 kts 82°
2026-05-05 03:49 14.69482 122.26278 21398 ft 405 kts 82°
2026-05-05 03:49 14.69904 122.29150 21651 ft 407 kts 82°
2026-05-05 03:49 14.70214 122.32053 21872 ft 410 kts 86°
2026-05-05 03:50 14.70337 122.35015 22118 ft 412 kts 90°
2026-05-05 03:50 14.70272 122.37959 22381 ft 413 kts 92°
2026-05-05 03:50 14.70146 122.40914 22659 ft 414 kts 93°
2026-05-05 03:50 14.70011 122.43877 22928 ft 415 kts 93°
2026-05-05 03:51 14.69875 122.46850 23164 ft 417 kts 93°
2026-05-05 03:51 14.69740 122.49842 23386 ft 420 kts 93°
2026-05-05 03:51 14.69606 122.52849 23625 ft 421 kts 93°
2026-05-05 03:51 14.69471 122.55881 23881 ft 422 kts 93°
2026-05-05 03:52 14.69338 122.58901 24123 ft 423 kts 93°
2026-05-05 03:52 14.69203 122.61930 24351 ft 425 kts 93°
2026-05-05 03:52 14.69068 122.64970 24575 ft 426 kts 93°
2026-05-05 03:52 14.68933 122.68024 24794 ft 428 kts 93°
2026-05-05 03:53 14.68796 122.71085 25010 ft 429 kts 93°
2026-05-05 03:53 14.68660 122.74155 25230 ft 430 kts 94°
2026-05-05 03:53 14.68522 122.77257 25443 ft 432 kts 94°
2026-05-05 03:53 14.68383 122.80349 25647 ft 433 kts 94°
2026-05-05 03:54 14.68243 122.83450 25852 ft 435 kts 94°
2026-05-05 03:54 14.68103 122.86558 26059 ft 436 kts 94°
2026-05-05 03:54 14.67962 122.89683 26257 ft 438 kts 94°
2026-05-05 03:54 14.67820 122.92809 26452 ft 439 kts 94°
2026-05-05 03:55 14.67677 122.95952 26648 ft 440 kts 94°
2026-05-05 03:55 14.67532 122.99127 26839 ft 442 kts 94°
2026-05-05 03:55 14.67387 123.02286 27033 ft 443 kts 94°
2026-05-05 03:55 14.67242 123.05454 27222 ft 444 kts 94°
2026-05-05 03:56 14.67096 123.08637 27404 ft 446 kts 94°
2026-05-05 03:56 14.66949 123.11821 27591 ft 447 kts 94°
2026-05-05 03:56 14.66801 123.15019 27771 ft 449 kts 94°
2026-05-05 03:56 14.66651 123.18227 27943 ft 450 kts 94°
2026-05-05 03:57 14.66500 123.21468 28114 ft 451 kts 94°
2026-05-05 03:57 14.66349 123.24695 28284 ft 453 kts 94°
2026-05-05 03:57 14.66197 123.27931 28450 ft 454 kts 94°
2026-05-05 03:57 14.66044 123.31185 28615 ft 455 kts 94°
2026-05-05 03:58 14.65891 123.34436 28779 ft 457 kts 94°
2026-05-05 03:58 14.65736 123.37702 28937 ft 458 kts 94°
2026-05-05 03:58 14.65581 123.40973 29084 ft 460 kts 94°
2026-05-05 03:58 14.65423 123.44285 29235 ft 461 kts 93°
2026-05-05 03:59 14.65265 123.47581 29379 ft 462 kts 93°
2026-05-05 03:59 14.65107 123.50888 29524 ft 464 kts 93°
2026-05-05 03:59 14.64948 123.54206 29652 ft 466 kts 93°
2026-05-05 03:59 14.64788 123.57536 29798 ft 467 kts 93°
2026-05-05 04:00 14.64627 123.60870 29994 ft 467 kts 93°
2026-05-05 04:00 14.64465 123.64205 30201 ft 467 kts 93°
2026-05-05 04:00 14.64302 123.67557 30415 ft 466 kts 93°
2026-05-05 04:00 14.64139 123.70889 30608 ft 466 kts 93°
2026-05-05 04:01 14.63977 123.74216 30792 ft 466 kts 93°
2026-05-05 04:01 14.63814 123.77543 30976 ft 466 kts 93°
2026-05-05 04:01 14.63651 123.80871 31179 ft 466 kts 93°
2026-05-05 04:01 14.63488 123.84195 31364 ft 466 kts 93°
2026-05-05 04:02 14.63324 123.87519 31533 ft 466 kts 93°
2026-05-05 04:02 14.63158 123.90873 31712 ft 466 kts 93°
2026-05-05 04:02 14.62993 123.94195 31906 ft 466 kts 93°
2026-05-05 04:02 14.62827 123.97517 32113 ft 465 kts 92°
2026-05-05 04:03 14.62662 124.00833 32309 ft 465 kts 92°
2026-05-05 04:03 14.62495 124.04144 32487 ft 465 kts 92°
2026-05-05 04:03 14.62329 124.07464 32661 ft 465 kts 92°
2026-05-05 04:03 14.62162 124.10784 32841 ft 465 kts 92°
2026-05-05 04:04 14.61826 124.17441 32883 ft 465 kts 92°
2026-05-05 04:04 14.61489 124.24072 32888 ft 464 kts 92°
2026-05-05 04:05 14.61150 124.30698 32890 ft 464 kts 92°
2026-05-05 04:05 14.60808 124.37351 32887 ft 464 kts 92°
2026-05-05 04:06 14.60465 124.43975 32886 ft 464 kts 92°
2026-05-05 04:06 14.60120 124.50597 32888 ft 464 kts 92°
2026-05-05 04:07 14.59774 124.57202 32890 ft 463 kts 92°
2026-05-05 04:07 14.59426 124.63835 32890 ft 463 kts 92°
2026-05-05 04:08 14.59075 124.70454 32892 ft 463 kts 93°
2026-05-05 04:08 14.58724 124.77062 32892 ft 463 kts 93°
2026-05-05 04:09 14.58370 124.83692 32893 ft 463 kts 93°
2026-05-05 04:09 14.58015 124.90302 32893 ft 463 kts 93°
2026-05-05 04:10 14.57659 124.96906 32893 ft 463 kts 93°
2026-05-05 04:10 14.57300 125.03507 32894 ft 463 kts 93°
2026-05-05 04:11 14.56938 125.10123 32894 ft 462 kts 93°
2026-05-05 04:11 14.56577 125.16722 32894 ft 462 kts 93°
2026-05-05 04:12 14.56213 125.23315 32894 ft 463 kts 93°
2026-05-05 04:12 14.55847 125.29937 32893 ft 463 kts 93°
2026-05-05 04:13 14.55479 125.36539 32893 ft 463 kts 93°
2026-05-05 04:13 14.55109 125.43155 32892 ft 464 kts 93°
2026-05-05 04:14 14.54737 125.49766 32889 ft 463 kts 93°
2026-05-05 04:14 14.54361 125.56410 32892 ft 464 kts 93°
2026-05-05 04:15 14.53986 125.63022 32887 ft 463 kts 93°
2026-05-05 04:15 14.53609 125.69631 32886 ft 463 kts 94°
2026-05-05 04:16 14.53230 125.76260 32883 ft 463 kts 94°
2026-05-05 04:16 14.52849 125.82864 32883 ft 463 kts 94°
2026-05-05 04:17 14.52468 125.89477 32883 ft 463 kts 94°
2026-05-05 04:17 14.52085 125.96090 32882 ft 464 kts 94°
2026-05-05 04:18 14.51695 126.02728 32883 ft 463 kts 94°
2026-05-05 04:18 14.51300 126.09337 32887 ft 464 kts 94°
2026-05-05 04:19 14.50906 126.15947 32891 ft 464 kts 94°
2026-05-05 04:19 14.50510 126.22589 32890 ft 464 kts 94°
2026-05-05 04:20 14.50114 126.29204 32891 ft 464 kts 94°
2026-05-05 04:20 14.49717 126.35821 32892 ft 464 kts 94°
2026-05-05 04:21 14.49317 126.42445 32893 ft 464 kts 94°
2026-05-05 04:21 14.48914 126.49086 32893 ft 464 kts 94°
2026-05-05 04:22 14.48511 126.55709 32894 ft 464 kts 94°
2026-05-05 04:22 14.48107 126.62319 32893 ft 464 kts 94°
2026-05-05 04:23 14.47699 126.68961 32893 ft 464 kts 94°
2026-05-05 04:23 14.47290 126.75579 32893 ft 465 kts 94°
2026-05-05 04:24 14.46878 126.82204 32894 ft 465 kts 94°
2026-05-05 04:25 14.46257 126.92171 32894 ft 465 kts 94°
2026-05-05 04:25 14.45841 126.98786 32894 ft 464 kts 94°
2026-05-05 04:26 14.45424 127.05391 32892 ft 464 kts 94°
2026-05-05 04:26 14.45006 127.12000 32892 ft 464 kts 94°
2026-05-05 04:27 14.44586 127.18627 32893 ft 464 kts 94°
2026-05-05 04:27 14.44163 127.25247 32894 ft 464 kts 94°
2026-05-05 04:28 14.43739 127.31858 32893 ft 464 kts 94°
2026-05-05 04:28 14.43310 127.38503 32891 ft 464 kts 94°
2026-05-05 04:29 14.42881 127.45117 32891 ft 464 kts 94°
2026-05-05 04:29 14.42452 127.51724 32886 ft 464 kts 94°
2026-05-05 04:30 14.42022 127.58332 32884 ft 463 kts 94°
2026-05-05 04:30 14.41588 127.64960 32885 ft 463 kts 94°
2026-05-05 04:31 14.41152 127.71573 32879 ft 464 kts 94°
2026-05-05 04:31 14.40715 127.78179 32878 ft 464 kts 94°
2026-05-05 04:32 14.40275 127.84799 32878 ft 463 kts 94°
2026-05-05 04:32 14.39836 127.91388 32878 ft 462 kts 94°
2026-05-05 04:33 14.39395 127.97977 32879 ft 463 kts 94°
2026-05-05 04:33 14.38951 128.04578 32875 ft 463 kts 94°
2026-05-05 04:34 14.38504 128.11205 32882 ft 463 kts 94°
2026-05-05 04:34 14.38057 128.17797 32879 ft 463 kts 94°
2026-05-05 04:35 14.37608 128.24387 32873 ft 462 kts 94°
2026-05-05 04:35 14.37156 128.30996 32872 ft 462 kts 94°
2026-05-05 04:36 14.36704 128.37578 32873 ft 463 kts 94°
2026-05-05 04:36 14.36250 128.44177 32876 ft 463 kts 94°
2026-05-05 04:37 14.35794 128.50770 32878 ft 463 kts 94°
2026-05-05 04:37 14.35335 128.57389 32877 ft 463 kts 95°
2026-05-05 04:38 14.34875 128.63983 32880 ft 463 kts 95°
2026-05-05 04:38 14.34413 128.70584 32880 ft 463 kts 95°
2026-05-05 04:39 14.33947 128.77200 32879 ft 462 kts 95°
2026-05-05 04:39 14.33483 128.83772 32882 ft 462 kts 95°
2026-05-05 04:40 14.33017 128.90345 32882 ft 462 kts 95°
2026-05-05 04:40 14.32549 128.96926 32878 ft 462 kts 95°
2026-05-05 04:41 14.32077 129.03536 32879 ft 463 kts 95°
2026-05-05 04:41 14.31605 129.10126 32879 ft 463 kts 95°
2026-05-05 04:42 14.31130 129.16717 32893 ft 463 kts 95°
2026-05-05 04:42 14.30652 129.23335 32890 ft 463 kts 95°
2026-05-05 04:43 14.30174 129.29915 32892 ft 462 kts 95°
2026-05-05 04:43 14.29695 129.36496 32891 ft 463 kts 95°
2026-05-05 04:44 14.29214 129.43082 32886 ft 463 kts 95°
2026-05-05 04:44 14.28729 129.49697 32876 ft 463 kts 95°
2026-05-05 04:45 14.28244 129.56288 32880 ft 463 kts 95°
2026-05-05 04:45 14.27756 129.62894 32880 ft 464 kts 95°
2026-05-05 04:46 14.27266 129.69519 32879 ft 463 kts 95°
2026-05-05 04:46 14.26775 129.76105 32878 ft 463 kts 95°
2026-05-05 04:47 14.26284 129.82690 32877 ft 463 kts 95°
2026-05-05 04:47 14.25792 129.89282 32879 ft 464 kts 95°
2026-05-05 04:48 14.25295 129.95908 32878 ft 464 kts 95°
2026-05-05 04:48 14.24959 130.02525 32875 ft 464 kts 91°
2026-05-05 04:49 14.24907 130.09148 32876 ft 465 kts 90°
2026-05-05 04:49 14.24869 130.15805 32875 ft 464 kts 90°
2026-05-05 04:50 14.24826 130.22423 32873 ft 464 kts 90°
2026-05-05 04:50 14.24778 130.29045 32871 ft 464 kts 91°
2026-05-05 04:51 14.24728 130.35671 32871 ft 464 kts 90°
2026-05-05 04:51 14.24675 130.42324 32871 ft 465 kts 90°
2026-05-05 04:52 14.24622 130.48958 32871 ft 465 kts 90°
2026-05-05 04:52 14.24566 130.55586 32871 ft 465 kts 90°
2026-05-05 04:53 14.24508 130.62238 32871 ft 465 kts 90°
2026-05-05 04:53 14.24448 130.68877 32871 ft 465 kts 91°
2026-05-05 04:54 14.24385 130.75509 32871 ft 465 kts 90°
2026-05-05 04:54 14.24322 130.82145 32871 ft 466 kts 90°
2026-05-05 04:55 14.24258 130.88815 32871 ft 466 kts 91°
2026-05-05 04:55 14.24192 130.95470 32871 ft 466 kts 91°
2026-05-05 04:56 14.24122 131.02122 32871 ft 466 kts 91°
2026-05-05 04:56 14.24051 131.08784 32869 ft 465 kts 91°
2026-05-05 04:57 14.23978 131.15425 32869 ft 465 kts 91°
2026-05-05 04:57 14.23904 131.22064 32868 ft 466 kts 91°
2026-05-05 04:58 14.23827 131.28714 32867 ft 467 kts 91°
2026-05-05 04:58 14.23748 131.35398 32863 ft 467 kts 90°
2026-05-05 04:59 14.23668 131.42071 32858 ft 467 kts 90°
2026-05-05 04:59 14.23587 131.48733 32854 ft 467 kts 90°
2026-05-05 05:00 14.23502 131.55422 32857 ft 467 kts 90°
2026-05-05 05:00 14.23417 131.62082 32857 ft 467 kts 90°
2026-05-05 05:01 14.23330 131.68745 32858 ft 467 kts 91°
2026-05-05 05:01 14.23239 131.75413 32863 ft 468 kts 91°
2026-05-05 05:02 14.23146 131.82117 32858 ft 469 kts 91°
2026-05-05 05:02 14.23054 131.88805 32861 ft 469 kts 91°
2026-05-05 05:03 14.22959 131.95495 32859 ft 468 kts 91°
2026-05-05 05:03 14.22862 132.02194 32853 ft 468 kts 91°
2026-05-05 05:04 14.22763 132.08873 32859 ft 468 kts 91°
2026-05-05 05:04 14.22662 132.15545 32852 ft 468 kts 91°
2026-05-05 05:05 14.22559 132.22215 32851 ft 468 kts 90°
2026-05-05 05:05 14.22454 132.28916 32853 ft 468 kts 91°
2026-05-05 05:06 14.22349 132.35586 32860 ft 467 kts 91°
2026-05-05 05:06 14.22241 132.42262 32868 ft 467 kts 91°
2026-05-05 05:07 14.22130 132.48955 32868 ft 467 kts 91°
2026-05-05 05:07 14.22018 132.55612 32867 ft 467 kts 91°
2026-05-05 05:08 14.21906 132.62274 32868 ft 467 kts 91°
2026-05-05 05:08 14.21790 132.68950 32865 ft 468 kts 91°
2026-05-05 05:09 14.21672 132.75650 32869 ft 468 kts 91°
2026-05-05 05:09 14.21552 132.82326 32869 ft 468 kts 91°
2026-05-05 05:10 14.21431 132.88989 32870 ft 467 kts 91°
2026-05-05 05:10 14.21308 132.95675 32866 ft 467 kts 91°
2026-05-05 05:11 14.21185 133.02331 32858 ft 466 kts 91°
2026-05-05 05:11 14.21059 133.08989 32853 ft 467 kts 91°
2026-05-05 05:12 14.20930 133.15662 32852 ft 468 kts 91°
2026-05-05 05:12 14.20798 133.22354 32852 ft 468 kts 91°
2026-05-05 05:13 14.20667 133.29021 32852 ft 468 kts 91°
2026-05-05 05:13 14.20532 133.35695 32852 ft 468 kts 91°
2026-05-05 05:14 14.20395 133.42388 32852 ft 467 kts 91°
2026-05-05 05:14 14.20258 133.49043 32853 ft 467 kts 91°
2026-05-05 05:15 14.20120 133.55707 32853 ft 467 kts 91°
2026-05-05 05:15 14.19978 133.62370 32853 ft 467 kts 91°
2026-05-05 05:16 14.19834 133.69067 32853 ft 468 kts 91°
2026-05-05 05:16 14.19689 133.75740 32852 ft 468 kts 91°
2026-05-05 05:17 14.19543 133.82414 32851 ft 467 kts 91°
2026-05-05 05:17 14.19394 133.89104 32852 ft 467 kts 91°
2026-05-05 05:18 14.19242 133.95769 32852 ft 467 kts 91°
2026-05-05 05:18 14.19090 134.02429 32853 ft 468 kts 91°
2026-05-05 05:19 14.18935 134.09107 32853 ft 468 kts 91°
2026-05-05 05:19 14.18779 134.15806 32851 ft 469 kts 91°
2026-05-05 05:20 14.18621 134.22487 32851 ft 468 kts 91°
2026-05-05 05:20 14.18461 134.29169 32849 ft 469 kts 91°
2026-05-05 05:21 14.18298 134.35880 32849 ft 468 kts 91°
2026-05-05 05:21 14.18134 134.42553 32850 ft 468 kts 91°
2026-05-05 05:22 14.17969 134.49222 32850 ft 468 kts 91°
2026-05-05 05:22 14.17802 134.55895 32850 ft 468 kts 91°
2026-05-05 05:23 14.17633 134.62600 32852 ft 468 kts 91°
2026-05-05 05:23 14.17462 134.69268 32851 ft 467 kts 91°
2026-05-05 05:24 14.17290 134.75935 32850 ft 468 kts 91°
2026-05-05 05:24 14.17115 134.82639 32850 ft 468 kts 91°
2026-05-05 05:25 14.16940 134.89308 32851 ft 468 kts 91°
2026-05-05 05:25 14.16764 134.95978 32854 ft 468 kts 91°
2026-05-05 05:26 14.16556 135.02648 32863 ft 468 kts 92°
2026-05-05 05:26 14.16229 135.09337 32867 ft 467 kts 92°
2026-05-05 05:27 14.15897 135.15984 32861 ft 467 kts 92°
2026-05-05 05:27 14.15413 135.25952 32857 ft 467 kts 92°
2026-05-05 05:28 14.15090 135.32633 32858 ft 467 kts 92°
2026-05-05 05:28 14.14766 135.39288 32858 ft 467 kts 92°
2026-05-05 05:29 14.14440 135.45943 32860 ft 467 kts 92°
2026-05-05 05:29 14.14112 135.52621 32861 ft 467 kts 92°
2026-05-05 05:30 14.13783 135.59272 32863 ft 467 kts 92°
2026-05-05 05:30 14.13454 135.65929 32861 ft 467 kts 92°
2026-05-05 05:31 14.13123 135.72561 32864 ft 466 kts 92°
2026-05-05 05:31 14.12788 135.79226 32867 ft 466 kts 92°
2026-05-05 05:32 14.12453 135.85878 32866 ft 468 kts 92°
2026-05-05 05:32 14.12114 135.92535 32861 ft 467 kts 92°
2026-05-05 05:33 14.11772 135.99206 32853 ft 467 kts 92°
2026-05-05 05:33 14.11432 136.05848 32850 ft 466 kts 92°
2026-05-05 05:34 14.11090 136.12493 32852 ft 467 kts 92°
2026-05-05 05:34 14.10746 136.19139 32853 ft 466 kts 92°
2026-05-05 05:35 14.10398 136.25806 32852 ft 467 kts 92°
2026-05-05 05:35 14.10050 136.32449 32851 ft 467 kts 92°
2026-05-05 05:36 14.09699 136.39107 32851 ft 468 kts 92°
2026-05-05 05:36 14.09343 136.45796 32849 ft 468 kts 92°
2026-05-05 05:37 14.08989 136.52452 32847 ft 467 kts 92°
2026-05-05 05:37 14.08634 136.59096 32848 ft 466 kts 92°
2026-05-05 05:38 14.08277 136.65736 32849 ft 466 kts 92°
2026-05-05 05:38 14.07916 136.72398 32846 ft 466 kts 92°
2026-05-05 05:39 14.07555 136.79042 32846 ft 467 kts 92°
2026-05-05 05:39 14.07191 136.85693 32848 ft 467 kts 92°
2026-05-05 05:40 14.06824 136.92376 32853 ft 468 kts 92°
2026-05-05 05:40 14.06457 136.99033 32845 ft 468 kts 92°
2026-05-05 05:41 14.06088 137.05694 32853 ft 468 kts 92°
2026-05-05 05:41 14.05717 137.12350 32849 ft 467 kts 92°
2026-05-05 05:42 14.05344 137.19017 32852 ft 467 kts 92°
2026-05-05 05:42 14.04970 137.25659 32850 ft 467 kts 92°
2026-05-05 05:43 14.04594 137.32301 32848 ft 467 kts 92°
2026-05-05 05:43 14.04215 137.38979 32853 ft 468 kts 92°
2026-05-05 05:44 14.03835 137.45640 32854 ft 468 kts 92°
2026-05-05 05:44 14.03453 137.52289 32856 ft 467 kts 92°
2026-05-05 05:45 14.03068 137.58942 32863 ft 467 kts 92°
2026-05-05 05:45 14.02682 137.65615 32864 ft 467 kts 92°
2026-05-05 05:46 14.02296 137.72258 32877 ft 467 kts 92°
2026-05-05 05:46 14.01907 137.78897 32872 ft 467 kts 92°
2026-05-05 05:47 14.01516 137.85566 32875 ft 467 kts 92°
2026-05-05 05:47 14.01123 137.92216 32874 ft 468 kts 92°
2026-05-05 05:48 14.00728 137.98880 32876 ft 469 kts 92°
2026-05-05 05:48 14.00330 138.05552 32872 ft 468 kts 92°
2026-05-05 05:49 13.99930 138.12232 32872 ft 467 kts 92°
2026-05-05 05:49 13.99530 138.18883 32873 ft 468 kts 92°
2026-05-05 05:50 13.99129 138.25533 32870 ft 468 kts 92°
2026-05-05 05:50 13.98723 138.32214 32870 ft 468 kts 92°
2026-05-05 05:51 13.98317 138.38874 32869 ft 468 kts 92°
2026-05-05 05:51 13.97909 138.45538 32870 ft 469 kts 92°
2026-05-05 05:52 13.97498 138.52211 32870 ft 470 kts 92°
2026-05-05 05:52 13.97086 138.58908 32871 ft 469 kts 92°
2026-05-05 05:53 13.96670 138.65586 32871 ft 469 kts 92°
2026-05-05 05:53 13.96254 138.72266 32870 ft 470 kts 92°
2026-05-05 05:54 13.95834 138.78971 32869 ft 469 kts 92°
2026-05-05 05:54 13.95414 138.85647 32867 ft 469 kts 92°
2026-05-05 05:55 13.94992 138.92336 32867 ft 470 kts 92°
2026-05-05 05:55 13.94567 138.99021 32869 ft 471 kts 92°
2026-05-05 05:56 13.94140 139.05737 32870 ft 471 kts 92°
2026-05-05 05:56 13.93712 139.12431 32871 ft 470 kts 92°
2026-05-05 05:57 13.93282 139.19120 32868 ft 470 kts 92°
2026-05-05 05:57 13.92849 139.25833 32862 ft 470 kts 92°
2026-05-05 05:58 13.92414 139.32521 32857 ft 470 kts 92°
2026-05-05 05:58 13.91980 139.39199 32856 ft 469 kts 92°
2026-05-05 05:59 13.91544 139.45872 32856 ft 470 kts 92°
2026-05-05 05:59 13.91104 139.52576 32854 ft 470 kts 92°
2026-05-05 06:00 13.90664 139.59258 32849 ft 470 kts 92°
2026-05-05 06:00 13.90221 139.65953 32847 ft 471 kts 93°
2026-05-05 06:01 13.89775 139.72667 32848 ft 469 kts 93°
2026-05-05 06:01 13.89329 139.79342 32848 ft 470 kts 93°
2026-05-05 06:02 13.88881 139.86028 32849 ft 470 kts 93°
2026-05-05 06:02 13.88433 139.92703 32856 ft 470 kts 93°
2026-05-05 06:03 13.87979 139.99417 32865 ft 471 kts 93°
2026-05-05 06:03 13.87525 140.06124 32868 ft 472 kts 93°
2026-05-05 06:04 13.87069 140.12824 32867 ft 471 kts 93°
2026-05-05 06:04 13.86609 140.19542 32868 ft 472 kts 93°
2026-05-05 06:05 13.86150 140.26243 32869 ft 472 kts 93°
2026-05-05 06:05 13.85689 140.32932 32868 ft 470 kts 93°
2026-05-05 06:06 13.85227 140.39616 32867 ft 471 kts 93°
2026-05-05 06:06 13.84760 140.46333 32860 ft 471 kts 93°
2026-05-05 06:07 13.84295 140.53016 32850 ft 470 kts 93°
2026-05-05 06:07 13.83830 140.59687 32848 ft 470 kts 93°
2026-05-05 06:08 13.83349 140.66380 32847 ft 468 kts 94°
2026-05-05 06:08 13.82788 140.73026 32848 ft 468 kts 95°
2026-05-05 06:09 13.82218 140.79661 32848 ft 468 kts 95°
2026-05-05 06:09 13.81652 140.86308 32848 ft 468 kts 95°
2026-05-05 06:10 13.81087 140.92971 32848 ft 468 kts 95°
2026-05-05 06:10 13.80522 140.99614 32848 ft 468 kts 95°
2026-05-05 06:11 13.79956 141.06258 32848 ft 469 kts 95°
2026-05-05 06:11 13.79386 141.12932 32856 ft 468 kts 95°
2026-05-05 06:12 13.78816 141.19570 32863 ft 468 kts 95°
2026-05-05 06:12 13.78245 141.26199 32866 ft 467 kts 95°
2026-05-05 06:13 13.77673 141.32825 32866 ft 467 kts 95°
2026-05-05 06:13 13.77099 141.39462 32864 ft 466 kts 95°
2026-05-05 06:14 13.76525 141.46076 32864 ft 466 kts 95°
2026-05-05 06:14 13.75949 141.52688 32866 ft 467 kts 95°
2026-05-05 06:15 13.75368 141.59337 32867 ft 467 kts 95°
2026-05-05 06:15 13.74788 141.65956 32866 ft 466 kts 95°
2026-05-05 06:16 13.74208 141.72562 32866 ft 466 kts 95°
2026-05-05 06:16 13.73624 141.79166 32866 ft 466 kts 95°
2026-05-05 06:17 13.73037 141.85795 32864 ft 465 kts 95°
2026-05-05 06:17 13.72452 141.92389 32865 ft 465 kts 95°
2026-05-05 06:18 13.71866 141.98983 32863 ft 465 kts 95°
2026-05-05 06:18 13.71274 142.05608 32864 ft 465 kts 95°
2026-05-05 06:19 13.70684 142.12201 32864 ft 465 kts 95°
2026-05-05 06:19 13.70092 142.18793 32862 ft 465 kts 96°
2026-05-05 06:20 13.69498 142.25391 32861 ft 465 kts 96°
2026-05-05 06:20 13.68903 142.31972 32861 ft 464 kts 95°
2026-05-05 06:21 13.68304 142.38581 32864 ft 465 kts 95°
2026-05-05 06:21 13.67583 142.45149 32859 ft 461 kts 98°
2026-05-05 06:22 13.67152 142.48392 32613 ft 456 kts 98°
2026-05-05 06:22 13.66721 142.51603 32346 ft 455 kts 98°
2026-05-05 06:22 13.66296 142.54808 32090 ft 455 kts 98°
2026-05-05 06:22 13.65875 142.58017 31832 ft 455 kts 98°
2026-05-05 06:23 13.65453 142.61253 31572 ft 455 kts 98°
2026-05-05 06:23 13.65037 142.64469 31316 ft 456 kts 98°
2026-05-05 06:23 13.64619 142.67696 31060 ft 457 kts 98°
2026-05-05 06:23 13.64202 142.70923 30803 ft 458 kts 98°
2026-05-05 06:24 13.63784 142.74151 30547 ft 458 kts 98°
2026-05-05 06:24 13.63366 142.77380 30294 ft 458 kts 98°
2026-05-05 06:24 13.62948 142.80610 30024 ft 457 kts 98°
2026-05-05 06:24 13.62528 142.83850 29741 ft 455 kts 98°
2026-05-05 06:25 13.62113 142.87053 29433 ft 453 kts 98°
2026-05-05 06:25 13.61699 142.90242 29034 ft 451 kts 98°
2026-05-05 06:25 13.61288 142.93408 28607 ft 448 kts 98°
2026-05-05 06:25 13.60878 142.96556 28168 ft 444 kts 98°
2026-05-05 06:26 13.60470 142.99673 27758 ft 440 kts 97°
2026-05-05 06:26 13.60068 143.02757 27371 ft 435 kts 97°
2026-05-05 06:26 13.59666 143.05835 26985 ft 431 kts 97°
2026-05-05 06:26 13.59270 143.08863 26597 ft 428 kts 97°
2026-05-05 06:27 13.58878 143.11864 26226 ft 424 kts 97°
2026-05-05 06:27 13.58101 143.17805 25473 ft 419 kts 97°
2026-05-05 06:27 13.57716 143.20747 25109 ft 416 kts 97°
2026-05-05 06:28 13.57332 143.23670 24741 ft 413 kts 96°
2026-05-05 06:28 13.56949 143.26591 24376 ft 410 kts 96°
2026-05-05 06:28 13.56570 143.29470 23996 ft 407 kts 96°
2026-05-05 06:28 13.56194 143.32330 23607 ft 404 kts 96°
2026-05-05 06:29 13.55820 143.35168 23218 ft 401 kts 96°
2026-05-05 06:29 13.55449 143.37984 22825 ft 398 kts 96°
2026-05-05 06:29 13.55080 143.40783 22453 ft 395 kts 96°
2026-05-05 06:29 13.54714 143.43553 22090 ft 391 kts 96°
2026-05-05 06:30 13.54350 143.46324 21699 ft 389 kts 96°
2026-05-05 06:30 13.53991 143.49057 21288 ft 386 kts 96°
2026-05-05 06:30 13.53633 143.51764 20872 ft 383 kts 96°
2026-05-05 06:30 13.53277 143.54455 20451 ft 381 kts 96°
2026-05-05 06:31 13.52923 143.57134 20017 ft 379 kts 96°
2026-05-05 06:31 13.52570 143.59796 19591 ft 377 kts 96°
2026-05-05 06:31 13.52218 143.62451 19142 ft 376 kts 96°
2026-05-05 06:31 13.51863 143.65116 18702 ft 375 kts 96°
2026-05-05 06:32 13.51512 143.67754 18259 ft 373 kts 96°
2026-05-05 06:32 13.51163 143.70377 17821 ft 372 kts 96°
2026-05-05 06:32 13.50815 143.72990 17391 ft 370 kts 96°
2026-05-05 06:32 13.50468 143.75591 16964 ft 368 kts 96°
2026-05-05 06:33 13.50122 143.78178 16538 ft 367 kts 96°
2026-05-05 06:33 13.49777 143.80756 16113 ft 365 kts 96°
2026-05-05 06:33 13.49433 143.83339 15678 ft 363 kts 96°
2026-05-05 06:33 13.49092 143.85894 15230 ft 362 kts 96°
2026-05-05 06:34 13.48751 143.88442 14783 ft 361 kts 96°
2026-05-05 06:34 13.48410 143.90979 14340 ft 360 kts 96°
2026-05-05 06:34 13.48071 143.93509 13899 ft 358 kts 96°
2026-05-05 06:34 13.47733 143.96033 13450 ft 357 kts 96°
2026-05-05 06:35 13.47396 143.98547 12993 ft 356 kts 96°
2026-05-05 06:35 13.47057 144.01067 12554 ft 354 kts 96°
2026-05-05 06:35 13.46722 144.03556 12132 ft 352 kts 96°
2026-05-05 06:35 13.46390 144.06030 11705 ft 350 kts 96°
2026-05-05 06:36 13.46058 144.08488 11272 ft 348 kts 96°
2026-05-05 06:36 13.45729 144.10934 10842 ft 346 kts 97°
2026-05-05 06:36 13.45402 144.13360 10421 ft 344 kts 96°
2026-05-05 06:36 13.45077 144.15767 10074 ft 338 kts 97°
2026-05-05 06:37 13.44757 144.18132 9938 ft 326 kts 97°
2026-05-05 06:37 13.44451 144.20385 9872 ft 313 kts 96°
2026-05-05 06:37 13.44156 144.22567 9610 ft 308 kts 96°
2026-05-05 06:37 13.43866 144.24717 9326 ft 303 kts 96°
2026-05-05 06:38 13.43580 144.26835 9043 ft 298 kts 96°
2026-05-05 06:38 13.43298 144.28921 8764 ft 294 kts 96°
2026-05-05 06:38 13.43020 144.30977 8490 ft 290 kts 96°
2026-05-05 06:38 13.42743 144.33017 8219 ft 285 kts 96°
2026-05-05 06:39 13.42473 144.35010 7954 ft 281 kts 96°
2026-05-05 06:39 13.42207 144.36976 7689 ft 277 kts 96°
2026-05-05 06:39 13.41943 144.38912 7427 ft 272 kts 96°
2026-05-05 06:39 13.41685 144.40814 7167 ft 268 kts 97°
2026-05-05 06:40 13.41430 144.42697 6867 ft 266 kts 97°
2026-05-05 06:40 13.41176 144.44565 6554 ft 264 kts 97°
2026-05-05 06:40 13.40921 144.46433 6247 ft 262 kts 96°
2026-05-05 06:40 13.40670 144.48275 5946 ft 260 kts 96°
2026-05-05 06:41 13.40421 144.50100 5637 ft 258 kts 96°
2026-05-05 06:41 13.40174 144.51915 5331 ft 257 kts 96°
2026-05-05 06:41 13.39928 144.53717 5024 ft 255 kts 96°
2026-05-05 06:41 13.39684 144.55502 4719 ft 253 kts 96°
2026-05-05 06:42 13.39442 144.57274 4454 ft 249 kts 96°
2026-05-05 06:42 13.39279 144.59026 4233 ft 243 kts 85°
2026-05-05 06:42 13.39728 144.60656 4023 ft 237 kts 66°
2026-05-05 06:42 13.40429 144.62143 3939 ft 226 kts 65°
2026-05-05 06:43 13.41097 144.63572 3936 ft 222 kts 65°
2026-05-05 06:43 13.41759 144.65001 3933 ft 222 kts 66°
2026-05-05 06:43 13.42420 144.66436 3942 ft 222 kts 66°
2026-05-05 06:43 13.43076 144.67865 3946 ft 221 kts 66°
2026-05-05 06:44 13.43737 144.69306 3938 ft 222 kts 66°
2026-05-05 06:44 13.44392 144.70735 3942 ft 222 kts 66°
2026-05-05 06:44 13.45049 144.72168 3946 ft 222 kts 66°
2026-05-05 06:44 13.45703 144.73597 3950 ft 222 kts 66°
2026-05-05 06:45 13.46357 144.75025 3952 ft 222 kts 66°
2026-05-05 06:45 13.47010 144.76454 3951 ft 221 kts 66°
2026-05-05 06:45 13.47663 144.77882 3950 ft 221 kts 66°
2026-05-05 06:45 13.48320 144.79324 3949 ft 222 kts 66°
2026-05-05 06:46 13.48803 144.80814 3931 ft 220 kts 86°
2026-05-05 06:46 13.48479 144.82291 3919 ft 213 kts 118°
2026-05-05 06:46 13.47369 144.83313 3934 ft 223 kts 151°
2026-05-05 06:46 13.45805 144.83554 3940 ft 237 kts 184°
2026-05-05 06:47 13.44265 144.82886 3943 ft 248 kts 217°
2026-05-05 06:47 13.43215 144.81482 3955 ft 252 kts 243°
2026-05-05 06:47 13.42537 144.79815 3927 ft 250 kts 249°
2026-05-05 06:47 13.41950 144.78142 3669 ft 250 kts 250°
2026-05-05 06:48 13.41377 144.76458 3389 ft 251 kts 250°
2026-05-05 06:48 13.40808 144.74766 3136 ft 251 kts 250°
2026-05-05 06:48 13.40245 144.73077 2896 ft 251 kts 250°
2026-05-05 06:48 13.39679 144.71392 2664 ft 250 kts 251°
2026-05-05 06:49 13.39117 144.69734 2572 ft 239 kts 251°
2026-05-05 06:49 13.38718 144.68119 2421 ft 228 kts 270°
2026-05-05 06:49 13.39103 144.66644 2272 ft 205 kts 308°
2026-05-05 06:49 13.40119 144.65799 2061 ft 178 kts 349°
2026-05-05 06:50 13.41209 144.65859 1941 ft 148 kts 34°
2026-05-05 06:50 13.42011 144.66532 1977 ft 151 kts 51°
2026-05-05 06:50 13.42657 144.67392 1968 ft 153 kts 59°
2026-05-05 06:50 13.43205 144.68333 1967 ft 153 kts 62°
2026-05-05 06:51 13.43687 144.69247 1927 ft 136 kts 64°
2026-05-05 06:51 13.44102 144.70104 1865 ft 135 kts 65°
2026-05-05 06:51 13.44503 144.70967 1710 ft 133 kts 65°
2026-05-05 06:51 13.44896 144.71827 1540 ft 134 kts 66°
2026-05-05 06:52 13.45288 144.72689 1364 ft 134 kts 65°
2026-05-05 06:52 13.45679 144.73548 1206 ft 133 kts 65°
2026-05-05 06:52 13.46071 144.74407 1035 ft 134 kts 65°
2026-05-05 06:52 13.46465 144.75272 860 ft 132 kts 65°
2026-05-05 06:53 13.46858 144.76130 689 ft 133 kts 64°
2026-05-05 06:53 13.47245 144.76986 492 ft 132 kts 64°
2026-05-05 06:53 13.47641 144.77841 336 ft 134 kts 64°
2026-05-05 06:53 13.48036 144.78715 242 ft 136 kts 64°
2026-05-05 06:54 13.48404 144.79521 246 ft 105 kts 65°
2026-05-05 06:54 13.48640 144.80037 252 ft 55 kts 65°
2026-05-05 06:54 13.48810 144.80291 258 ft 30 kts 36°
2026-05-05 06:54 13.48905 144.80358 257 ft 12 kts 35°
2026-05-05 06:55 13.48978 144.80410 256 ft 13 kts 36°
2026-05-05 06:55 13.49031 144.80481 257 ft 12 kts 61°
2026-05-05 06:55 13.49065 144.80545 259 ft 9 kts 61°
2026-05-05 06:55 13.49090 144.80592 262 ft 7 kts 62°
2026-05-05 06:56 13.49125 144.80633 263 ft 9 kts
2026-05-05 06:56 13.49177 144.80605 258 ft 6 kts 330°
2026-05-05 06:56 13.49189 144.80598 256 ft 0 kts 332°